EST,Max TemperatureF,Mean TemperatureF,Min TemperatureF,Max Dew PointF,MeanDew PointF,Min DewpointF,Max Humidity, Mean Humidity, Min Humidity, Max Sea Level PressureIn, Mean Sea Level PressureIn, Min Sea Level PressureIn, Max VisibilityMiles, Mean VisibilityMiles, Min VisibilityMiles, Max Wind SpeedMPH, Mean Wind SpeedMPH, Max Gust SpeedMPH,PrecipitationIn, CloudCover, Events, WindDirDegrees
2012-11-1,49,46,42,41,38,35,89,75,61,29.54,29.52,29.50,10,10,10,7,1,9,0.01,8,Rain,194
2012-11-2,50,45,40,40,34,29,92,69,46,29.66,29.58,29.53,10,10,6,16,5,22,0.01,8,Rain,282
2012-11-3,48,45,42,31,29,27,62,56,49,29.86,29.75,29.66,10,10,10,15,6,23,0.00,8,,288
2012-11-4,43,40,37,30,28,22,65,59,52,30.00,29.92,29.85,10,10,10,15,7,21,0.00,8,,300
2012-11-5,39,34,28,23,16,11,59,47,34,30.15,30.06,29.99,10,10,10,15,5,21,0.00,7,,327
2012-11-6,41,31,20,19,15,11,81,57,33,30.26,30.22,30.16,10,10,10,9,2,14,0.00,0,,62
2012-11-7,36,28,19,19,16,14,84,64,43,30.24,30.10,29.92,10,10,10,12,4,18,0.00,3,,20
2012-11-8,40,38,35,27,22,15,64,54,44,29.90,29.86,29.80,10,10,9,20,10,32,T,8,Snow,356
2012-11-9,49,40,31,30,22,19,63,47,31,30.12,30.02,29.90,10,10,10,17,6,23,0.00,4,,291
2012-11-10,53,43,32,31,27,24,75,55,35,30.46,30.31,30.13,10,10,9,14,4,18,0.00,2,,274
2012-11-11,61,47,33,40,34,26,86,66,46,30.46,30.43,30.37,10,9,4,9,2,,T,3,,142
2012-11-12,65,50,34,53,39,30,96,72,48,30.44,30.36,30.14,10,5,0,17,5,26,0.00,3,Fog,176
2012-11-13,63,47,30,54,35,22,93,70,46,30.48,30.28,30.05,10,9,2,23,6,29,0.33,6,Rain,288
2012-11-14,45,35,25,24,20,17,85,59,33,30.60,30.55,30.48,10,10,9,10,2,16,0.00,0,,2
2012-11-15,42,32,22,24,21,17,84,65,45,30.53,30.44,30.35,10,10,8,5,0,8,0.00,0,,115
2012-11-16,44,33,21,25,21,16,88,64,40,30.50,30.39,30.34,10,10,7,3,1,3,0.00,0,,243
2012-11-17,48,34,1,28,22,17,84,63,42,30.72,30.63,30.51,10,9,6,10,1,16,0.00,0,,261
2012-11-18,1,1,1,,,,,,,30.74,30.67,30.63,10,9,5,5,0,,0.00,0,,130
2012-11-19,45,34,21,21,19,17,100,67,33,30.62,30.49,30.31,10,8,4,4,0,,0.00,1,,-1
2012-11-20,46,33,19,24,21,15,92,67,41,30.30,30.23,30.17,10,9,6,3,0,3,0.00,0,,60
2012-11-21,50,37,24,26,23,20,92,62,31,30.31,30.26,30.21,10,9,5,3,0,5,0.00,0,,350
2012-11-22,53,37,20,30,23,17,92,62,32,30.32,30.24,30.14,10,9,6,6,0,8,0.00,0,,140
2012-11-23,54,38,21,38,29,17,96,70,44,30.12,29.88,29.61,10,8,6,10,1,15,T,3,Rain,192
2012-11-24,44,36,28,38,19,13,92,65,37,29.67,29.62,29.56,10,9,2,21,10,32,T,7,Snow,284
2012-11-25,35,32,28,19,13,5,59,44,29,29.84,29.76,29.67,10,10,10,12,8,15,T,6,,276
2012-11-26,42,35,27,25,19,15,72,53,33,30.24,30.01,29.84,10,10,8,21,3,30,0.00,7,,299
2012-11-27,36,29,21,24,21,17,92,76,59,30.32,30.28,30.24,10,9,4,5,0,5,0.00,4,,-1
2012-11-28,35,27,18,24,20,15,92,72,52,30.26,30.19,30.12,10,9,6,5,0,6,T,6,Snow,180
2012-11-29,42,33,24,25,18,12,69,53,37,30.25,30.18,30.11,10,10,8,21,7,29,T,5,Snow,283
2012-11-30,31,25,19,23,7,-3,69,51,32,30.58,30.46,30.23,10,10,10,13,4,17,T,6,,29